Time,TemperatureF,DewpointF,PressureIn,WindDirection,WindDirectionDegrees,WindSpeedMPH,WindSpeedGustMPH,Humidity,HourlyPrecipIn,Conditions,Clouds,dailyrainin,SoftwareType,DateUTC
2013-09-26 00:02:00,47.3,44.2,29.94,North,0,0.0,0.0,89,0.00,,,0.00,Wunderground v.1.15,2013-09-26 04:02:00,
2013-09-26 00:08:00,47.4,44.3,29.94,North,0,0.0,0.0,89,0.00,,,0.00,Wunderground v.1.15,2013-09-26 04:08:00,
2013-09-26 00:12:00,47.4,44.3,29.94,North,0,0.0,0.0,89,0.00,,,0.00,Wunderground v.1.15,2013-09-26 04:12:00,
2013-09-26 00:17:00,47.4,44.3,29.95,North,0,0.0,0.0,89,0.00,,,0.00,Wunderground v.1.15,2013-09-26 04:17:00,
2013-09-26 00:22:00,47.3,44.2,29.95,North,0,0.0,0.0,89,0.00,,,0.00,Wunderground v.1.15,2013-09-26 04:22:00,
2013-09-26 00:32:00,47.1,44.0,29.95,North,0,0.0,0.0,89,0.00,,,0.00,Wunderground v.1.15,2013-09-26 04:32:00,
2013-09-26 00:37:00,47.1,44.0,29.95,North,0,0.0,0.0,89,0.00,,,0.00,Wunderground v.1.15,2013-09-26 04:37:00,
2013-09-26 00:47:00,47.0,44.2,29.95,North,0,0.0,0.0,90,0.00,,,0.00,Wunderground v.1.15,2013-09-26 04:47:00,
2013-09-26 00:52:00,47.1,44.3,29.95,North,0,0.0,0.0,90,0.00,,,0.00,Wunderground v.1.15,2013-09-26 04:52:00,
2013-09-26 01:02:00,47.3,44.5,29.95,North,0,0.0,0.0,90,0.00,,,0.00,Wunderground v.1.15,2013-09-26 05:02:00,
2013-09-26 01:12:00,47.1,44.3,29.95,North,0,0.0,0.0,90,0.00,,,0.00,Wunderground v.1.15,2013-09-26 05:12:00,
2013-09-26 01:17:00,47.0,44.2,29.95,North,0,0.0,0.0,90,0.00,,,0.00,Wunderground v.1.15,2013-09-26 05:17:00,
2013-09-26 01:27:00,47.0,44.2,29.95,North,0,0.0,0.0,90,0.00,,,0.00,Wunderground v.1.15,2013-09-26 05:27:00,
2013-09-26 01:32:00,46.8,44.0,29.95,North,0,0.0,0.0,90,0.00,,,0.00,Wunderground v.1.15,2013-09-26 05:32:00,
2013-09-26 01:42:00,46.7,43.9,29.95,North,0,0.0,0.0,90,0.00,,,0.00,Wunderground v.1.15,2013-09-26 05:42:00,
2013-09-26 01:57:00,46.4,43.6,29.95,North,0,0.0,0.0,90,0.00,,,0.00,Wunderground v.1.15,2013-09-26 05:57:00,
2013-09-26 02:02:00,46.2,43.4,29.96,North,0,0.0,0.0,90,0.00,,,0.00,Wunderground v.1.15,2013-09-26 06:02:00,
2013-09-26 02:08:00,46.2,43.4,29.96,North,0,0.0,0.0,90,0.00,,,0.00,Wunderground v.1.15,2013-09-26 06:08:00,
2013-09-26 02:17:00,46.0,43.2,29.96,North,0,0.0,0.0,90,0.00,,,0.00,Wunderground v.1.15,2013-09-26 06:17:00,
2013-09-26 02:22:00,45.8,43.0,29.96,North,0,0.0,0.0,90,0.00,,,0.00,Wunderground v.1.15,2013-09-26 06:22:00,
2013-09-26 02:32:00,45.7,42.9,29.96,North,0,0.0,0.0,90,0.00,,,0.00,Wunderground v.1.15,2013-09-26 06:32:00,
2013-09-26 02:37:00,45.7,42.9,29.96,North,0,0.0,0.0,90,0.00,,,0.00,Wunderground v.1.15,2013-09-26 06:37:00,
2013-09-26 02:47:00,45.5,43.0,29.96,North,0,0.0,0.0,91,0.00,,,0.00,Wunderground v.1.15,2013-09-26 06:47:00,
2013-09-26 02:52:00,45.7,43.2,29.96,North,0,0.0,0.0,91,0.00,,,0.00,Wunderground v.1.15,2013-09-26 06:52:00,
2013-09-26 03:02:00,45.7,43.2,29.95,North,0,0.0,0.0,91,0.00,,,0.00,Wunderground v.1.15,2013-09-26 07:02:00,
2013-09-26 03:07:00,45.8,43.3,29.95,North,0,0.0,0.0,91,0.00,,,0.00,Wunderground v.1.15,2013-09-26 07:07:00,
2013-09-26 03:17:00,46.0,43.5,29.96,North,0,0.0,0.0,91,0.00,,,0.00,Wunderground v.1.15,2013-09-26 07:17:00,
2013-09-26 03:22:00,46.1,43.6,29.96,North,0,0.0,0.0,91,0.00,,,0.00,Wunderground v.1.15,2013-09-26 07:22:00,
2013-09-26 03:32:00,46.2,43.7,29.96,North,0,0.0,0.0,91,0.00,,,0.00,Wunderground v.1.15,2013-09-26 07:32:00,
2013-09-26 03:42:00,46.2,43.7,29.96,North,0,0.0,0.0,91,0.00,,,0.00,Wunderground v.1.15,2013-09-26 07:42:00,
2013-09-26 03:52:00,46.4,43.9,29.96,North,0,0.0,0.0,91,0.00,,,0.00,Wunderground v.1.15,2013-09-26 07:52:00,
2013-09-26 04:02:00,46.4,43.9,29.96,North,0,0.0,0.0,91,0.00,,,0.00,Wunderground v.1.15,2013-09-26 08:02:00,
2013-09-26 04:07:00,46.4,43.9,29.96,North,0,0.0,0.0,91,0.00,,,0.00,Wunderground v.1.15,2013-09-26 08:07:00,
2013-09-26 04:12:00,46.2,43.7,29.96,North,0,0.0,0.0,91,0.00,,,0.00,Wunderground v.1.15,2013-09-26 08:12:00,
2013-09-26 04:27:00,46.4,43.9,29.96,North,0,0.0,0.0,91,0.00,,,0.00,Wunderground v.1.15,2013-09-26 08:27:00,
2013-09-26 04:32:00,46.2,43.7,29.96,North,0,0.0,0.0,91,0.00,,,0.00,Wunderground v.1.15,2013-09-26 08:32:00,
2013-09-26 04:37:00,46.2,43.7,29.96,North,0,0.0,0.0,91,0.00,,,0.00,Wunderground v.1.15,2013-09-26 08:37:00,
2013-09-26 04:47:00,46.1,43.9,29.96,North,0,0.0,0.0,92,0.00,,,0.00,Wunderground v.1.15,2013-09-26 08:47:00,
2013-09-26 04:57:00,46.0,43.5,29.96,North,0,0.0,0.0,91,0.00,,,0.00,Wunderground v.1.15,2013-09-26 08:57:00,
2013-09-26 05:07:00,46.0,43.8,29.97,North,0,0.0,0.0,92,0.00,,,0.00,Wunderground v.1.15,2013-09-26 09:07:00,
2013-09-26 05:17:00,45.8,43.6,29.97,North,0,0.0,0.0,92,0.00,,,0.00,Wunderground v.1.15,2013-09-26 09:17:00,
2013-09-26 05:22:00,45.8,43.6,29.97,North,0,0.0,0.0,92,0.00,,,0.00,Wunderground v.1.15,2013-09-26 09:22:00,
2013-09-26 05:32:00,45.8,43.6,29.97,North,0,0.0,0.0,92,0.00,,,0.00,Wunderground v.1.15,2013-09-26 09:32:00,
2013-09-26 05:38:00,45.8,43.6,29.97,North,0,0.0,0.0,92,0.00,,,0.00,Wunderground v.1.15,2013-09-26 09:38:00,
2013-09-26 05:47:00,45.7,43.5,29.97,North,0,0.0,0.0,92,0.00,,,0.00,Wunderground v.1.15,2013-09-26 09:47:00,
2013-09-26 05:52:00,45.5,43.3,29.97,North,0,0.0,0.0,92,0.00,,,0.00,Wunderground v.1.15,2013-09-26 09:52:00,
2013-09-26 06:02:00,45.5,43.3,29.98,North,0,0.0,0.0,92,0.00,,,0.00,Wunderground v.1.15,2013-09-26 10:02:00,
2013-09-26 06:07:00,45.7,43.5,29.98,North,0,0.0,0.0,92,0.00,,,0.00,Wunderground v.1.15,2013-09-26 10:07:00,
2013-09-26 06:17:00,45.5,43.3,29.98,North,0,0.0,0.0,92,0.00,,,0.00,Wunderground v.1.15,2013-09-26 10:17:00,
2013-09-26 06:22:00,45.4,43.2,29.98,North,0,0.0,0.0,92,0.00,,,0.00,Wunderground v.1.15,2013-09-26 10:22:00,
2013-09-26 06:32:00,45.4,43.2,29.99,North,0,0.0,0.0,92,0.00,,,0.00,Wunderground v.1.15,2013-09-26 10:32:00,
2013-09-26 06:37:00,45.4,43.2,29.99,North,0,0.0,0.0,92,0.00,,,0.00,Wunderground v.1.15,2013-09-26 10:37:00,
2013-09-26 06:47:00,45.4,43.2,30.00,North,0,0.0,0.0,92,0.00,,,0.00,Wunderground v.1.15,2013-09-26 10:47:00,
2013-09-26 06:52:00,45.4,43.2,30.00,North,0,0.0,0.0,92,0.00,,,0.00,Wunderground v.1.15,2013-09-26 10:52:00,
2013-09-26 07:02:00,45.2,43.0,30.00,North,0,0.0,0.0,92,0.00,,,0.00,Wunderground v.1.15,2013-09-26 11:02:00,
2013-09-26 07:12:00,45.2,43.3,30.00,North,0,0.0,0.0,93,0.00,,,0.00,Wunderground v.1.15,2013-09-26 11:12:00,
2013-09-26 07:17:00,45.2,43.3,30.01,North,0,0.0,0.0,93,0.00,,,0.00,Wunderground v.1.15,2013-09-26 11:17:00,
2013-09-26 07:22:00,45.4,43.5,30.01,North,0,0.0,0.0,93,0.00,,,0.00,Wunderground v.1.15,2013-09-26 11:22:00,
2013-09-26 07:32:00,45.4,43.5,30.01,North,0,0.0,0.0,93,0.00,,,0.00,Wunderground v.1.15,2013-09-26 11:32:00,
2013-09-26 07:37:00,45.5,43.3,30.01,North,0,0.0,0.0,92,0.00,,,0.00,Wunderground v.1.15,2013-09-26 11:37:00,
2013-09-26 07:47:00,46.0,43.8,30.01,North,0,0.0,0.0,92,0.00,,,0.00,Wunderground v.1.15,2013-09-26 11:47:00,
2013-09-26 07:57:00,46.7,44.5,30.01,North,0,0.0,0.0,92,0.00,,,0.00,Wunderground v.1.15,2013-09-26 11:57:00,
2013-09-26 08:07:00,47.6,45.4,30.01,North,0,0.0,0.0,92,0.00,,,0.00,Wunderground v.1.15,2013-09-26 12:07:00,
2013-09-26 08:17:00,48.3,46.1,30.01,North,0,0.0,0.0,92,0.00,,,0.00,Wunderground v.1.15,2013-09-26 12:17:00,
2013-09-26 08:27:00,49.2,46.7,30.01,North,0,0.0,0.0,91,0.00,,,0.00,Wunderground v.1.15,2013-09-26 12:27:00,
2013-09-26 08:37:00,50.4,47.6,30.01,North,0,0.0,0.0,90,0.00,,,0.00,Wunderground v.1.15,2013-09-26 12:37:00,
2013-09-26 08:47:00,51.6,47.9,30.02,North,0,0.0,0.0,87,0.00,,,0.00,Wunderground v.1.15,2013-09-26 12:47:00,
2013-09-26 08:52:00,52.2,48.1,30.02,North,0,0.0,0.0,86,0.00,,,0.00,Wunderground v.1.15,2013-09-26 12:52:00,
2013-09-26 09:02:00,53.2,47.5,30.02,North,0,0.0,0.0,81,0.00,,,0.00,Wunderground v.1.15,2013-09-26 13:02:00,
2013-09-26 09:07:00,53.9,47.9,30.02,North,0,0.0,0.0,80,0.00,,,0.00,Wunderground v.1.15,2013-09-26 13:07:00,
2013-09-26 09:17:00,55.1,48.0,30.03,North,0,0.0,0.0,77,0.00,,,0.00,Wunderground v.1.15,2013-09-26 13:17:00,
2013-09-26 09:22:00,55.9,48.1,30.03,North,0,0.0,0.0,75,0.00,,,0.00,Wunderground v.1.15,2013-09-26 13:22:00,
2013-09-26 09:32:00,57.0,48.4,30.03,North,0,0.0,0.0,73,0.00,,,0.00,Wunderground v.1.15,2013-09-26 13:32:00,
2013-09-26 09:38:00,58.0,49.0,30.03,North,0,0.0,0.0,72,0.00,,,0.00,Wunderground v.1.15,2013-09-26 13:38:00,
2013-09-26 09:47:00,59.3,49.1,30.03,North,0,0.0,0.0,69,0.00,,,0.00,Wunderground v.1.15,2013-09-26 13:47:00,
2013-09-26 09:52:00,59.9,48.9,30.03,North,0,0.0,0.0,67,0.00,,,0.00,Wunderground v.1.15,2013-09-26 13:52:00,
2013-09-26 10:02:00,61.2,50.2,30.03,North,0,0.0,0.0,67,0.00,,,0.00,Wunderground v.1.15,2013-09-26 14:02:00,
2013-09-26 10:12:00,62.1,50.6,30.03,North,0,0.0,0.0,66,0.00,,,0.00,Wunderground v.1.15,2013-09-26 14:12:00,
2013-09-26 10:17:00,62.4,51.3,30.04,North,0,0.0,0.0,67,0.00,,,0.00,Wunderground v.1.15,2013-09-26 14:17:00,
2013-09-26 10:22:00,62.9,51.8,30.04,North,0,0.0,0.0,67,0.00,,,0.00,Wunderground v.1.15,2013-09-26 14:22:00,
2013-09-26 10:32:00,63.7,53.3,30.03,North,0,0.0,0.0,69,0.00,,,0.00,Wunderground v.1.15,2013-09-26 14:32:00,
2013-09-26 10:38:00,64.0,53.6,30.03,WNW,296,0.0,0.0,69,0.00,,,0.00,Wunderground v.1.15,2013-09-26 14:38:00,
2013-09-26 10:47:00,64.3,54.3,30.04,NW,322,0.0,0.0,70,0.00,,,0.00,Wunderground v.1.15,2013-09-26 14:47:00,
2013-09-26 10:57:00,65.3,54.5,30.04,NW,323,0.0,0.0,68,0.00,,,0.00,Wunderground v.1.15,2013-09-26 14:57:00,
2013-09-26 11:07:00,66.0,55.1,30.04,NW,320,0.0,0.0,68,0.00,,,0.00,Wunderground v.1.15,2013-09-26 15:07:00,
2013-09-26 11:12:00,65.8,54.9,30.04,North,8,1.0,1.0,68,0.00,,,0.00,Wunderground v.1.15,2013-09-26 15:12:00,
2013-09-26 11:27:00,66.6,55.7,30.04,North,350,0.0,0.0,68,0.00,,,0.00,Wunderground v.1.15,2013-09-26 15:27:00,
2013-09-26 11:38:00,66.1,56.4,30.04,North,352,0.0,0.0,71,0.00,,,0.00,Wunderground v.1.15,2013-09-26 15:38:00,
2013-09-26 11:47:00,66.6,57.3,30.04,North,357,0.0,1.0,72,0.00,,,0.00,Wunderground v.1.15,2013-09-26 15:47:00,
2013-09-26 11:57:00,67.6,57.1,30.04,NE,51,0.0,0.0,69,0.00,,,0.00,Wunderground v.1.15,2013-09-26 15:57:00,
2013-09-26 12:07:00,67.4,56.9,30.04,NNE,31,0.0,0.0,69,0.00,,,0.00,Wunderground v.1.15,2013-09-26 16:07:00,
2013-09-26 12:17:00,67.6,56.2,30.04,NE,38,0.0,0.0,67,0.00,,,0.00,Wunderground v.1.15,2013-09-26 16:17:00,
2013-09-26 12:22:00,67.9,56.9,30.04,NE,41,0.0,0.0,68,0.00,,,0.00,Wunderground v.1.15,2013-09-26 16:22:00,
2013-09-26 12:32:00,68.1,55.0,30.04,NE,48,0.0,0.0,63,0.00,,,0.00,Wunderground v.1.15,2013-09-26 16:32:00,
2013-09-26 12:37:00,68.1,55.5,30.04,NNE,23,0.0,0.0,64,0.00,,,0.00,Wunderground v.1.15,2013-09-26 16:37:00,
2013-09-26 12:47:00,68.3,54.3,30.04,North,357,1.0,1.0,61,0.00,,,0.00,Wunderground v.1.15,2013-09-26 16:47:00,
2013-09-26 12:52:00,67.8,53.9,30.04,North,354,1.0,1.0,61,0.00,,,0.00,Wunderground v.1.15,2013-09-26 16:52:00,
2013-09-26 13:02:00,68.1,53.2,30.04,North,0,0.0,0.0,59,0.00,,,0.00,Wunderground v.1.15,2013-09-26 17:02:00,
2013-09-26 13:07:00,68.1,54.1,30.04,North,0,1.0,3.0,61,0.00,,,0.00,Wunderground v.1.15,2013-09-26 17:07:00,
2013-09-26 13:17:00,68.4,54.4,30.04,North,354,0.0,0.0,61,0.00,,,0.00,Wunderground v.1.15,2013-09-26 17:17:00,
2013-09-26 13:22:00,68.8,54.8,30.04,North,356,0.0,0.0,61,0.00,,,0.00,Wunderground v.1.15,2013-09-26 17:22:00,
2013-09-26 13:32:00,68.6,55.1,30.03,North,10,0.0,0.0,62,0.00,,,0.00,Wunderground v.1.15,2013-09-26 17:32:00,
2013-09-26 13:37:00,68.8,54.8,30.03,NNE,31,0.0,0.0,61,0.00,,,0.00,Wunderground v.1.15,2013-09-26 17:37:00,
2013-09-26 13:47:00,68.8,55.2,30.03,North,353,1.0,1.0,62,0.00,,,0.00,Wunderground v.1.15,2013-09-26 17:47:00,
2013-09-26 13:57:00,68.3,55.6,30.03,North,359,1.0,1.0,64,0.00,,,0.00,Wunderground v.1.15,2013-09-26 17:57:00,
2013-09-26 14:07:00,67.9,55.7,30.03,North,1,1.0,1.0,65,0.00,,,0.00,Wunderground v.1.15,2013-09-26 18:07:00,
2013-09-26 14:12:00,67.6,55.8,30.03,North,1,1.0,1.0,66,0.00,,,0.00,Wunderground v.1.15,2013-09-26 18:12:00,
2013-09-26 14:27:00,67.8,55.2,30.03,North,6,0.0,0.0,64,0.00,,,0.00,Wunderground v.1.15,2013-09-26 18:27:00,
2013-09-26 14:37:00,67.4,55.2,30.03,NNW,340,1.0,6.0,65,0.00,,,0.00,Wunderground v.1.15,2013-09-26 18:37:00,
2013-09-26 14:47:00,67.3,55.1,30.03,NE,45,2.0,2.0,65,0.00,,,0.00,Wunderground v.1.15,2013-09-26 18:47:00,
2013-09-26 14:52:00,67.1,55.4,30.03,NE,47,0.0,2.0,66,0.00,,,0.00,Wunderground v.1.15,2013-09-26 18:52:00,
2013-09-26 15:02:00,67.1,55.8,30.03,North,0,0.0,1.0,67,0.00,,,0.00,Wunderground v.1.15,2013-09-26 19:02:00,
2013-09-26 15:12:00,66.6,54.9,30.03,NE,35,1.0,1.0,66,0.00,,,0.00,Wunderground v.1.15,2013-09-26 19:12:00,
2013-09-26 15:17:00,66.1,54.8,30.04,NNW,346,1.0,1.0,67,0.00,,,0.00,Wunderground v.1.15,2013-09-26 19:17:00,
2013-09-26 15:22:00,66.0,55.5,30.04,North,354,1.0,1.0,69,0.00,,,0.00,Wunderground v.1.15,2013-09-26 19:22:00,
2013-09-26 15:32:00,65.5,54.7,30.04,NNW,336,1.0,1.0,68,0.00,,,0.00,Wunderground v.1.15,2013-09-26 19:32:00,
2013-09-26 15:42:00,65.6,55.5,30.04,North,352,0.0,0.0,70,0.00,,,0.00,Wunderground v.1.15,2013-09-26 19:42:00,
2013-09-26 15:47:00,65.5,55.1,30.04,North,0,0.0,0.0,69,0.00,,,0.00,Wunderground v.1.15,2013-09-26 19:47:00,
2013-09-26 15:52:00,65.5,55.8,30.04,North,0,0.0,0.0,71,0.00,,,0.00,Wunderground v.1.15,2013-09-26 19:52:00,
2013-09-26 16:02:00,65.5,55.1,30.04,NE,37,0.0,0.0,69,0.00,,,0.00,Wunderground v.1.15,2013-09-26 20:02:00,
2013-09-26 16:12:00,65.2,54.4,30.04,North,0,1.0,1.0,68,0.00,,,0.00,Wunderground v.1.15,2013-09-26 20:12:00,
2013-09-26 16:17:00,65.0,53.8,30.04,North,0,0.0,1.0,67,0.00,,,0.00,Wunderground v.1.15,2013-09-26 20:17:00,
2013-09-26 16:22:00,65.2,54.0,30.04,North,0,0.0,0.0,67,0.00,,,0.00,Wunderground v.1.15,2013-09-26 20:22:00,
2013-09-26 16:32:00,64.8,53.6,30.04,North,0,0.0,0.0,67,0.00,,,0.00,Wunderground v.1.15,2013-09-26 20:32:00,
2013-09-26 16:37:00,64.5,53.3,30.04,NNE,21,0.0,0.0,67,0.00,,,0.00,Wunderground v.1.15,2013-09-26 20:37:00,
2013-09-26 16:47:00,64.2,53.4,30.05,North,3,0.0,0.0,68,0.00,,,0.00,Wunderground v.1.15,2013-09-26 20:47:00,
2013-09-26 16:53:00,64.0,53.2,30.05,North,3,0.0,0.0,68,0.00,,,0.00,Wunderground v.1.15,2013-09-26 20:53:00,
2013-09-26 17:02:00,63.9,53.5,30.05,North,8,0.0,0.0,69,0.00,,,0.00,Wunderground v.1.15,2013-09-26 21:02:00,
2013-09-26 17:12:00,63.7,52.5,30.05,North,8,0.0,0.0,67,0.00,,,0.00,Wunderground v.1.15,2013-09-26 21:12:00,
2013-09-26 17:17:00,63.7,52.9,30.05,North,3,0.0,0.0,68,0.00,,,0.00,Wunderground v.1.15,2013-09-26 21:17:00,
2013-09-26 17:27:00,63.4,52.7,30.05,North,4,0.0,0.0,68,0.00,,,0.00,Wunderground v.1.15,2013-09-26 21:27:00,
2013-09-26 17:42:00,63.2,52.9,30.05,North,10,0.0,0.0,69,0.00,,,0.00,Wunderground v.1.15,2013-09-26 21:42:00,
2013-09-26 17:47:00,63.2,52.9,30.05,North,10,0.0,0.0,69,0.00,,,0.00,Wunderground v.1.15,2013-09-26 21:47:00,
2013-09-26 17:53:00,63.2,52.5,30.05,North,10,0.0,0.0,68,0.00,,,0.00,Wunderground v.1.15,2013-09-26 21:53:00,
2013-09-26 18:02:00,63.1,52.8,30.06,North,10,0.0,0.0,69,0.00,,,0.00,Wunderground v.1.15,2013-09-26 22:02:00,
2013-09-26 18:07:00,62.9,52.6,30.06,North,10,0.0,0.0,69,0.00,,,0.00,Wunderground v.1.15,2013-09-26 22:07:00,
2013-09-26 18:12:00,62.7,52.8,30.06,North,10,0.0,0.0,70,0.00,,,0.00,Wunderground v.1.15,2013-09-26 22:12:00,
2013-09-26 18:27:00,62.3,52.4,30.06,North,10,0.0,0.0,70,0.00,,,0.00,Wunderground v.1.15,2013-09-26 22:27:00,
2013-09-26 18:37:00,62.0,52.5,30.06,North,10,0.0,0.0,71,0.00,,,0.00,Wunderground v.1.15,2013-09-26 22:37:00,
2013-09-26 18:47:00,61.5,52.0,30.06,North,10,0.0,0.0,71,0.00,,,0.00,Wunderground v.1.15,2013-09-26 22:47:00,
2013-09-26 18:52:00,61.3,51.8,30.06,North,10,0.0,0.0,71,0.00,,,0.00,Wunderground v.1.15,2013-09-26 22:52:00,
2013-09-26 19:02:00,60.7,52.0,30.07,North,10,0.0,0.0,73,0.00,,,0.00,Wunderground v.1.15,2013-09-26 23:02:00,
2013-09-26 19:07:00,60.4,52.1,30.07,North,10,0.0,0.0,74,0.00,,,0.00,Wunderground v.1.15,2013-09-26 23:07:00,
2013-09-26 19:17:00,59.8,51.9,30.07,North,10,0.0,0.0,75,0.00,,,0.00,Wunderground v.1.15,2013-09-26 23:17:00,
2013-09-26 19:27:00,59.2,51.6,30.07,North,10,0.0,0.0,76,0.00,,,0.00,Wunderground v.1.15,2013-09-26 23:27:00,
2013-09-26 19:37:00,58.6,51.8,30.07,North,10,0.0,0.0,78,0.00,,,0.00,Wunderground v.1.15,2013-09-26 23:37:00,
2013-09-26 19:47:00,58.0,51.5,30.07,North,10,0.0,0.0,79,0.00,,,0.00,Wunderground v.1.15,2013-09-26 23:47:00,
2013-09-26 19:52:00,57.6,51.1,30.07,North,10,0.0,0.0,79,0.00,,,0.00,Wunderground v.1.15,2013-09-26 23:52:00,
2013-09-26 20:02:00,57.2,51.4,30.08,North,10,0.0,0.0,81,0.00,,,0.00,Wunderground v.1.15,2013-09-27 00:02:00,
2013-09-26 20:12:00,56.9,51.1,30.08,North,10,0.0,0.0,81,0.00,,,0.00,Wunderground v.1.15,2013-09-27 00:12:00,
2013-09-26 20:17:00,56.6,51.2,30.08,North,10,0.0,0.0,82,0.00,,,0.00,Wunderground v.1.15,2013-09-27 00:17:00,
2013-09-26 20:27:00,56.2,51.1,30.08,North,10,0.0,0.0,83,0.00,,,0.00,Wunderground v.1.15,2013-09-27 00:27:00,
2013-09-26 20:37:00,55.7,50.9,30.08,North,10,0.0,0.0,84,0.00,,,0.00,Wunderground v.1.15,2013-09-27 00:37:00,
2013-09-26 20:47:00,55.4,50.6,30.08,North,10,0.0,0.0,84,0.00,,,0.00,Wunderground v.1.15,2013-09-27 00:47:00,
2013-09-26 20:52:00,55.3,50.9,30.08,North,10,0.0,0.0,85,0.00,,,0.00,Wunderground v.1.15,2013-09-27 00:52:00,
2013-09-26 21:02:00,55.0,50.6,30.08,North,10,0.0,0.0,85,0.00,,,0.00,Wunderground v.1.15,2013-09-27 01:02:00,
2013-09-26 21:07:00,54.8,50.4,30.08,North,10,0.0,0.0,85,0.00,,,0.00,Wunderground v.1.15,2013-09-27 01:07:00,
2013-09-26 21:17:00,54.7,50.6,30.08,North,10,0.0,0.0,86,0.00,,,0.00,Wunderground v.1.15,2013-09-27 01:17:00,
2013-09-26 21:22:00,54.5,50.4,30.08,North,10,0.0,0.0,86,0.00,,,0.00,Wunderground v.1.15,2013-09-27 01:22:00,
2013-09-26 21:32:00,54.2,50.4,30.08,North,10,0.0,0.0,87,0.00,,,0.00,Wunderground v.1.15,2013-09-27 01:32:00,
2013-09-26 21:38:00,54.1,50.0,30.08,North,10,0.0,0.0,86,0.00,,,0.00,Wunderground v.1.15,2013-09-27 01:38:00,
2013-09-26 21:47:00,53.9,50.1,30.08,North,10,0.0,0.0,87,0.00,,,0.00,Wunderground v.1.15,2013-09-27 01:47:00,
2013-09-26 21:53:00,53.8,50.0,30.08,North,10,0.0,0.0,87,0.00,,,0.00,Wunderground v.1.15,2013-09-27 01:53:00,
2013-09-26 22:02:00,53.6,49.8,30.09,North,10,0.0,0.0,87,0.00,,,0.00,Wunderground v.1.15,2013-09-27 02:02:00,
2013-09-26 22:07:00,53.5,50.0,30.09,North,10,0.0,0.0,88,0.00,,,0.00,Wunderground v.1.15,2013-09-27 02:07:00,
2013-09-26 22:12:00,53.5,50.0,30.09,North,10,0.0,0.0,88,0.00,,,0.00,Wunderground v.1.15,2013-09-27 02:12:00,
2013-09-26 22:27:00,53.2,49.7,30.09,North,10,0.0,0.0,88,0.00,,,0.00,Wunderground v.1.15,2013-09-27 02:27:00,
2013-09-26 22:38:00,53.2,50.0,30.09,North,10,0.0,0.0,89,0.00,,,0.00,Wunderground v.1.15,2013-09-27 02:38:00,
2013-09-26 22:47:00,53.3,50.1,30.09,North,10,0.0,0.0,89,0.00,,,0.00,Wunderground v.1.15,2013-09-27 02:47:00,
2013-09-26 22:57:00,53.3,50.1,30.09,North,10,0.0,0.0,89,0.00,,,0.00,Wunderground v.1.15,2013-09-27 02:57:00,
2013-09-26 23:08:00,53.3,50.1,30.09,North,10,0.0,0.0,89,0.00,,,0.00,Wunderground v.1.15,2013-09-27 03:08:00,
2013-09-26 23:17:00,53.3,50.1,30.09,North,10,0.0,0.0,89,0.00,,,0.00,Wunderground v.1.15,2013-09-27 03:17:00,
2013-09-26 23:23:00,53.3,50.1,30.09,North,10,0.0,0.0,89,0.00,,,0.00,Wunderground v.1.15,2013-09-27 03:23:00,
2013-09-26 23:32:00,53.5,50.6,30.09,North,10,0.0,0.0,90,0.00,,,0.00,Wunderground v.1.15,2013-09-27 03:32:00,
2013-09-26 23:37:00,53.3,50.4,30.09,North,10,0.0,0.0,90,0.00,,,0.00,Wunderground v.1.15,2013-09-27 03:37:00,
2013-09-26 23:47:00,53.3,50.4,30.10,North,10,0.0,0.0,90,0.00,,,0.00,Wunderground v.1.15,2013-09-27 03:47:00,
2013-09-26 23:52:00,53.3,50.4,30.10,North,10,0.0,0.0,90,0.00,,,0.00,Wunderground v.1.15,2013-09-27 03:52:00,